{"data":{"norad_id":66793,"epoch":"2026-09-20T06:04:50.234880Z","epoch_age_seconds":108225,"freshness":"FRESH","line1":"1 66793U 25278C   26263.25335920  .00010452  00000+0  38868-3 0  9990","line2":"2 66793  43.0036  95.7002 0002387 263.5441  96.5139 15.27589360 44969","mean_motion":15.2758936,"eccentricity":0.0002387,"inclination_deg":43.0036,"raan_deg":95.7002,"arg_perigee_deg":263.5441,"mean_anomaly_deg":96.5139,"bstar":0.00038868,"rev_number":4496,"period_min":94.266171112896,"perigee_km":481.38331054445,"apogee_km":484.65882740658,"semimajor_km":6861.1580689755,"source":"CELESTRAK","updated_at":"2026-09-21T09:00:36.013563Z"}}